Regional Weather Roundup
Issued by NWS

Home | Current Version | Previous Version | Graphics & Text | Print | Product List | Glossary On
Versions: 1 2 3 4 5 6 7 8 9 10 11 12 13 14 15 16 17 18 19 20 21 22 23 24 25 26 27 28 29 30 31 32 33 34 35 36 37 38 39 40 41 42 43 44 45 46 47 48 49 50
000
ASUS45 KSLC 262210
RWRUT

UTAH REGIONAL WEATHER ROUNDUP
NATIONAL WEATHER SERVICE SALT LAKE CITY UT
400 PM MDT WED APR 26 2017

UTZ001>011-023>025-262300-

NORTHERN UTAH

CITY           SKY/WX    TMP DP  RH WIND       PRES   REMARKS
BRIGHAM CITY   CLOUDY    54  34  46 S13       29.78F
HILL AFB       CLOUDY    51  32  48 SW6       29.77F
LOGAN          CLOUDY    53  35  50 SW5       29.76F
OGDEN          CLOUDY    52  32  46 CALM      29.77F
SALT LAKE CITY CLOUDY    57  34  41 CALM      29.76F
TOOELE VALLEY  CLOUDY    55  34  44 S6G17     29.77F
WENDOVER       LGT RAIN  54  34  46 CALM      29.74F
HEBER CITY     CLOUDY    52  28  40 S6        29.78F
WEST JORDAN    CLOUDY    57  43  57 S10       29.77F

$$

UTZ011>015-024>027-262300-

CENTRAL/NORTHEAST UTAH

CITY           SKY/WX    TMP DP  RH WIND       PRES   REMARKS
PROVO AIRPORT  CLOUDY    57  33  40 E3        29.78F
MOAB/CANYONLAN SUNNY     64  20  18 W7G20     29.76F
DELTA          PTSUNNY   63  28  27 SW10G17   29.76F
PRICE          CLOUDY    55  23  28 VRB5      29.78F
ROOSEVELT      SUNNY     59  25  27 W23G32    29.76F
VERNAL         CLOUDY    55  28  35 NW9       29.74F

$$

UTZ013>016-019>022-027-262300-

SOUTHERN UTAH

CITY           SKY/WX    TMP DP  RH WIND       PRES   REMARKS
BRYCE CANYON   PTSUNNY   55  25  31 W17G30    29.89F
CEDAR CITY     MOSUNNY   61  28  28 S14       29.83F
MILFORD        MOSUNNY   64  29  26 S20G29    29.77F
ST GEORGE      CLOUDY    74  27  17 W14G24    29.79F
HANKSVILLE     MOSUNNY   68  21  17 S8G20     29.77F
BLANDING       MOSUNNY   60  18  19 SW14G26   29.89F

$$

REGIONAL REPORTS     COLORADO/ARIZONA

CITY           SKY/WX    TMP DP  RH WIND       PRES   REMARKS
CRAIG, CO      CLOUDY    49  26  41 W12       29.77F
GRAND JUNCTION PTSUNNY   61  23  23 W10       29.78F
RIFLE, CO      CLOUDY    52  32  46 N9        29.80F
MONTROSE, CO   CLOUDY    55  25  31 NW7       29.82F
CORTEZ, CO     PTSUNNY   57  17  21 SW12G20   29.84F
COLORADO CITY    N/A     70  32  24 W23G30    29.88F
PAGE, AZ       SUNNY     70  21  15 N10       29.78F
GRAND CANYON   PTSUNNY   62  29  28 W17G32    29.92F
KINGMAN, AZ    MOSUNNY   77  24  14 SW16G25   29.85F
FLAGSTAFF, AZ  MOSUNNY   62  28  27 W17G36    29.93F

$$

REGIONAL REPORTS    NEVADA/IDAHO/WYOMING

CITY           SKY/WX    TMP DP  RH WIND       PRES   REMARKS
LAS VEGAS, NV  PTSUNNY   83  23  11 E6        29.72F
ELY, NY        CLOUDY    56  35  45 SW13G23   29.83F
ELKO, NV       LGT RAIN  49  43  80 W13       29.80F
POCATELLO, ID  LGT RAIN  47  41  80 SW17      29.77F
BURLEY, ID     LGT RAIN  45  41  86 W12       29.77F FOG
FORT BRIDGER,  MOCLDY    48  28  46 W21G29    29.82F
EVANSTON, WY   CLOUDY    43  29  57 SW16      29.80F
ROCK SPRINGS,  CLOUDY    44  30  57 W22G30    29.76F
KEMMERER, WY     N/A     45  27  49 SW20G28   29.78F

$$



USA.gov is the U.S. government's official web portal to all federal, state and local government web resources and services.